Regional Weather Roundup
Issued by NWS

Home | Current Version | Previous Version | Text Only | Print | Product List | Glossary Off
Versions: 1 2 3 4 5 6 7 8 9 10 11 12 13 14 15 16 17 18 19 20 21 22 23 24 25 26 27 28 29 30 31 32 33 34 35 36 37 38 39 40 41 42 43 44 45 46 47 48 49 50

000
ASUS43 KMKX 201221
RWRWI

WISCONSIN REGIONAL WEATHER ROUNDUP
NATIONAL WEATHER SERVICE MILWAUKEE/SULLIVAN WI
700 AM CDT WED SEP 20 2017

NOTE: "FAIR" INDICATES FEW OR NO CLOUDS BELOW 12,000 FEET WITH NO
SIGNIFICANT WEATHER AND/OR OBSTRUCTIONS TO VISIBILITY.

WIZ001-002-006>008-014>016-023>028-201300-
NORTHWEST WISCONSIN

CITY           SKY/WX    TMP DP  RH WIND       PRES   REMARKS
SUPERIOR ARPT  CLOUDY    62  62  98 CALM      29.65S
6HR MIN TEMP:  60; 6HR MAX TEMP:  68; 6HR PCP:  0.80;

ASHLAND        CLOUDY    62  61  96 VRB5      29.73F
6HR MIN TEMP:  61; 6HR MAX TEMP:  67; 6HR PCP:  0.51;

HAYWARD        CLOUDY    64  61  90 E7G17     29.70F
6HR MIN TEMP:  62; 6HR MAX TEMP:  67; 6HR PCP:  0.73;

SIREN          CLOUDY    66  64  94 S8        29.65R
6HR MIN TEMP:  63; 6HR MAX TEMP:  70; 6HR PCP:  0.37;

CUMBERLAND     CLOUDY    64  61  88 SE9       29.68S
RICE LAKE      CLOUDY    65  63  92 SE9       29.71R FOG
6HR MIN TEMP:  65; 6HR MAX TEMP:  67;

CHETEK         CLOUDY    64  64  97 SE12G20   29.70S
6HR MIN TEMP:  64; 6HR MAX TEMP:  67; 6HR PCP:  0.04;

LADYSMITH      CLOUDY    64  62  92 SE12      29.75F
6HR MIN TEMP:  64; 6HR MAX TEMP:  65; 6HR PCP:  0.12;

EAU CLAIRE     CLOUDY    65  63  93 SE9       29.70F
6HR MIN TEMP:  65; 6HR MAX TEMP:  68; 6HR PCP:  0.11;

MENOMONIE      CLOUDY    65  65 100 E9        29.70R
6HR MIN TEMP:  65; 6HR MAX TEMP:  68; 6HR PCP:  0.37;

NEW RICHMOND   CLOUDY    69  63  80 SE14      29.66R
OSCEOLA        CLOUDY    70  64  82 SE12      29.66S
6HR MIN TEMP:  69; 6HR MAX TEMP:  71; 6HR PCP:  0.04;

$$

WIZ003>005-009-010-017-018-201300-
NORTH CENTRAL WISCONSIN

CITY           SKY/WX    TMP DP  RH WIND       PRES   REMARKS
MANITOWISH WTR TSTM      62  61  97 CALM      29.85R
6HR MIN TEMP:  57; 6HR MAX TEMP:  62; 6HR PCP:  0.08;

ARBOR VITAE    CLOUDY    61  59  91 SE10G16   29.82R THUNDER
6HR MIN TEMP:  58; 6HR MAX TEMP:  61;

WOODRUFF       CLOUDY    61  59  91 SE10G16   29.82R THUNDER
6HR MIN TEMP:  58; 6HR MAX TEMP:  61;

RHINELANDER    CLOUDY    60  59  96 S10       29.84R
6HR MIN TEMP:  56; 6HR MAX TEMP:  60;

EAGLE RIVER    CLOUDY    60  59  96 S7        29.84R
6HR MIN TEMP:  55; 6HR MAX TEMP:  60;

LAND O LAKES   CLOUDY    60  57  91 SE8G16    29.85R
6HR MIN TEMP:  55; 6HR MAX TEMP:  60;

PHILLIPS       TSTM      62  62  99 SE7       29.80R
6HR MIN TEMP:  59; 6HR MAX TEMP:  64; 6HR PCP:  0.08;

TOMAHAWK         N/A     60  57  91 SE8       29.81R
6HR MIN TEMP:  57; 6HR MAX TEMP:  60;

MEDFORD        CLOUDY    63  59  89 W10G21    29.82R THUNDER
6HR MIN TEMP:  60; 6HR MAX TEMP:  63;

MERRILL          N/A     61  61 100 SE6       29.83F
$$

WIZ029-030-035-036-043>047-201300-
CENTRAL WISCONSIN

CITY           SKY/WX    TMP DP  RH WIND       PRES   REMARKS
WAUSAU         CLOUDY    61  60  97 SE12G21   29.80F FOG
6HR MIN TEMP:  59; 6HR MAX TEMP:  61;

MOSINEE        MOCLDY    61  61 100 SE10G21   29.82F FOG
MARSHFIELD     CLOUDY    64  59  83 SE12G21   29.77F
6HR MIN TEMP:  60; 6HR MAX TEMP:  64;

STEVENS POINT  PTCLDY    60  60 100 SE8       29.83F FOG
6HR MIN TEMP:  58; 6HR MAX TEMP:  60;

WAUPACA          N/A     64  63  97 SE6       29.87S FOG
6HR MIN TEMP:  58; 6HR MAX TEMP:  64;

WAUTOMA        CLOUDY    62  61  96 E5        29.86R FOG
6HR MIN TEMP:  57; 6HR MAX TEMP:  62;

WISC RAPIDS    MOCLDY    64  61  90 SE10G17   29.81F
6HR MIN TEMP:  61; 6HR MAX TEMP:  64; 6HR PCP: TRACE;

CAMP DOUGLAS   MOCLDY    63  63 100 SE10      29.78S
$$

WIZ011>013-019>022-031-037>040-048>050-201300-
NORTHEAST WISCONSIN

CITY           SKY/WX    TMP DP  RH WIND       PRES   REMARKS
ANTIGO         FOG       58  58 100 SE14      29.86F VSB 1/2
6HR MIN TEMP:  56; 6HR MAX TEMP:  58;

SHAWANO        CLOUDY    63  61  94 S7        29.88R FOG
6HR MIN TEMP:  53; 6HR MAX TEMP:  63;

OCONTO         CLOUDY    64  63  97 SE10G16   29.89S
6HR MIN TEMP:  50; 6HR MAX TEMP:  64;

STURGEON BAY   CLOUDY    64  63  96 SE10      29.92S FOG
6HR MIN TEMP:  61; 6HR MAX TEMP:  65;

GREEN BAY      CLOUDY    63  63 100 SE8       29.89F FOG
6HR MIN TEMP:  52; 6HR MAX TEMP:  63;

MANITOWOC      CLOUDY    64  64 100 SE9       29.92S FOG
APPLETON       MOCLDY    64  64 100 SE10      29.87S FOG
CLINTONVILLE   FOG       55  55 100 CALM      29.87S VSB 1/2
OSHKOSH        CLOUDY    63  62  97 SE8       29.87F FOG
6HR MIN TEMP:  57; 6HR MAX TEMP:  63;

$$

WIZ032>034-041-042-053>061-201300-
SOUTHWEST WISCONSIN

CITY           SKY/WX    TMP DP  RH WIND       PRES   REMARKS
LA CROSSE      CLOUDY    71  64  78 S13       29.74R
6HR MIN TEMP:  71; 6HR MAX TEMP:  72;

SPARTA         CLOUDY    68  63  82 S8        29.77R
6HR MIN TEMP:  65; 6HR MAX TEMP:  69;

VIROQUA        CLOUDY    66  65  94 S15G23    29.78R
6HR MIN TEMP:  64; 6HR MAX TEMP:  66;

BOSCOBEL       PTCLDY    70  63  78 VRB3      29.78S
6HR MIN TEMP:  68; 6HR MAX TEMP:  70;

PRAIRIE DU CHI MOCLDY    68  62  79 SE6       29.76S
6HR MIN TEMP:  67; 6HR MAX TEMP:  68;

PLATTEVILLE    CLEAR     66  66 100 SE12      29.81S
6HR MIN TEMP:  64; 6HR MAX TEMP:  66;

$$

WIZ056-057-062-063-064-067-068-201300-
SOUTH CENTRAL WISCONSIN

CITY           SKY/WX    TMP DP  RH WIND       PRES   REMARKS
REEDSBURG      CLOUDY    65  64  97 SE6       29.81R
6HR MIN TEMP:  63; 6HR MAX TEMP:  65;

BARABOO/DELLS  CLOUDY    65  61  88 SE9       29.82S
6HR MIN TEMP:  63; 6HR MAX TEMP:  65;

LONE ROCK      CLOUDY    66  64  93 E8        29.81S FOG
6HR MIN TEMP:  65; 6HR MAX TEMP:  66;

MINERAL POINT  CLOUDY    66  64  94 SE12      29.82S FOG
MADISON        MOCLDY    67  63  87 S16       29.84F
6HR MIN TEMP:  61; 6HR MAX TEMP:  67;

MIDDLETON      CLEAR     65  65  97 SE9       29.85S
6HR MIN TEMP:  63; 6HR MAX TEMP:  65;

WATERTOWN      CLEAR     63  63 100 SE8       29.87F FOG
6HR MIN TEMP:  59; 6HR MAX TEMP:  63;

MONROE         CLEAR     64  63  94 SE9       29.86R
JANESVILLE     PTCLDY    66  66 100 SE12      29.87S FOG
$$

WIZ051-052-058>065-066-070>072-201300-
SOUTHEAST WISCONSIN

CITY           SKY/WX    TMP DP  RH WIND       PRES   REMARKS
MILWAUKEE      FOG       65  65 100 S6        29.91F VSB 1/4
6HR MIN TEMP:  58; 6HR MAX TEMP:  65;

WAUKESHA       MOCLDY    63  63 100 SE6       29.93S FOG
MILWAUKEE/TIMM FOG       63  61  94 SE6       29.92S VSB 1/4
RACINE         CLOUDY    67  67 100 S8        29.94R FOG
6HR MIN TEMP:  57; 6HR MAX TEMP:  67;

BURLINGTON     FOG       63  63 100 SE3       29.91S VSB 1/2
6HR MIN TEMP:  61; 6HR MAX TEMP:  63;

KENOSHA        FOG       66  65  96 SE7       29.93R VSB<1/4
6HR MIN TEMP:  55; 6HR MAX TEMP:  66;

FOND DU LAC    CLEAR     64  60  87 SE9       29.88F
6HR MIN TEMP:  60; 6HR MAX TEMP:  64;

SHEBOYGAN      FOG       64  64 100 S6        29.92R VSB 1
6HR MIN TEMP:  50; 6HR MAX TEMP:  64;

WEST BEND      FOG       61  61 100 SE5       29.91F VSB<1/4
JUNEAU         CLEAR     63  62  97 SE7       29.89S FOG
6HR MIN TEMP:  58; 6HR MAX TEMP:  63;

$$

LSZ147-162-201300-
LAKE SUPERIOR

STATION/POSITION TIME  TEMP    WIND        PRES    WAVE
                       AIR SEA DIR/SP/G            HT/PER
                 (UTC) (F)     (DEG/KT/KT) (MB)    (FT/S)
W MID LAKE BUOY  1150   59 54  140/ 16/ 19 1007.0F   3/ 4
DEVILS ISLAND    1200   63     150/ 10/ 15 1006.1F
PORT WING        1140   63     120/  5/  8 1005.1S
SAXON HARBOR     1200   64     160/  1/ 13 1006.8
$$

LMZ867-665-643>646-201300-
LAKE MICHIGAN

STATION/POSITION TIME  TEMP    WIND        PRES    WAVE
                       AIR SEA DIR/SP/G            HT/PER
                 (UTC) (F)     (DEG/KT/KT) (MB)    (FT/S)
S GREEN BAY BUOY 1200   65 66  150/ 14/ 17 1011.8
N MID LAKE BUOY  1150   65 65  170/ 12/ 14 1014.7R   2/ 3
NORTHPORT PIER   11



USA.gov is the U.S. government's official web portal to all federal, state and local government web resources and services.